Time,TemperatureF,DewpointF,PressureIn,WindDirection,WindDirectionDegrees,WindSpeedMPH,WindSpeedGustMPH,Humidity,HourlyPrecipIn,Conditions,Clouds,dailyrainin,SolarRadiationWatts/m^2,SoftwareType,DateUTC
2013-01-14 00:03:00,5.0,1.0,-100.00,SE,146,7.0,11.0,82,0.00,,,0.00,0.000000,,2013-01-14 05:03:00,
2013-01-14 00:33:00,5.0,0.0,-100.00,SE,141,9.0,12.0,81,0.00,,,0.00,0.000000,,2013-01-14 05:33:00,
2013-01-14 00:43:00,5.0,0.0,-100.00,SE,141,9.0,12.0,81,0.00,,,0.00,0.000000,,2013-01-14 05:43:00,
2013-01-14 00:53:00,5.0,0.0,-100.00,SE,141,9.0,12.0,81,0.00,,,0.00,0.000000,,2013-01-14 05:53:00,
2013-01-14 01:02:00,5.0,0.0,-100.00,SE,141,9.0,12.0,81,0.00,,,0.00,0.000000,,2013-01-14 06:02:00,
2013-01-14 01:11:00,5.0,0.0,-100.00,SE,141,9.0,12.0,81,0.00,,,0.00,0.000000,,2013-01-14 06:11:00,
2013-01-14 01:33:00,5.0,0.0,-100.00,SE,129,5.0,10.0,81,0.00,,,0.00,0.000000,,2013-01-14 06:33:00,
2013-01-14 01:43:00,5.0,0.0,-100.00,SE,129,5.0,10.0,81,0.00,,,0.00,0.000000,,2013-01-14 06:43:00,
2013-01-14 01:52:00,5.0,0.0,-100.00,SE,129,5.0,10.0,81,0.00,,,0.00,0.000000,,2013-01-14 06:52:00,
2013-01-14 02:02:00,5.0,0.0,-100.00,SE,129,5.0,10.0,81,0.00,,,0.00,0.000000,,2013-01-14 07:02:00,
2013-01-14 02:11:00,5.0,0.0,-100.00,SE,129,5.0,10.0,81,0.00,,,0.00,0.000000,,2013-01-14 07:11:00,
2013-01-14 02:33:00,6.0,1.0,-100.00,SE,128,5.0,8.0,80,0.00,,,0.00,0.000000,,2013-01-14 07:33:00,
2013-01-14 02:43:00,6.0,1.0,-100.00,SE,128,5.0,8.0,80,0.00,,,0.00,0.000000,,2013-01-14 07:43:00,
2013-01-14 02:52:00,6.0,1.0,-100.00,SE,128,5.0,8.0,80,0.00,,,0.00,0.000000,,2013-01-14 07:52:00,
2013-01-14 03:02:00,6.0,1.0,-100.00,SE,128,5.0,8.0,80,0.00,,,0.00,0.000000,,2013-01-14 08:02:00,
2013-01-14 03:11:00,6.0,1.0,-100.00,SE,128,5.0,8.0,80,0.00,,,0.00,0.000000,,2013-01-14 08:11:00,
2013-01-14 03:33:00,5.0,0.0,-100.00,ESE,122,5.0,8.0,80,0.00,,,0.00,0.000000,,2013-01-14 08:33:00,
2013-01-14 03:43:00,5.0,0.0,-100.00,ESE,122,5.0,8.0,80,0.00,,,0.00,0.000000,,2013-01-14 08:43:00,
2013-01-14 03:53:00,5.0,0.0,-100.00,ESE,122,5.0,8.0,80,0.00,,,0.00,0.000000,,2013-01-14 08:53:00,
2013-01-14 04:02:00,5.0,0.0,-100.00,ESE,122,5.0,8.0,80,0.00,,,0.00,0.000000,,2013-01-14 09:02:00,
2013-01-14 04:11:00,5.0,0.0,-100.00,ESE,122,5.0,8.0,80,0.00,,,0.00,0.000000,,2013-01-14 09:11:00,
2013-01-14 04:34:00,6.0,1.0,-100.00,SE,140,4.0,6.0,80,0.00,,,0.00,0.000000,,2013-01-14 09:34:00,
2013-01-14 04:43:00,6.0,1.0,-100.00,SE,140,4.0,6.0,80,0.00,,,0.00,0.000000,,2013-01-14 09:43:00,
2013-01-14 04:53:00,6.0,1.0,-100.00,SE,140,4.0,6.0,80,0.00,,,0.00,0.000000,,2013-01-14 09:53:00,
2013-01-14 05:02:00,6.0,1.0,-100.00,SE,140,4.0,6.0,80,0.00,,,0.00,0.000000,,2013-01-14 10:02:00,
2013-01-14 05:11:00,6.0,1.0,-100.00,SE,140,4.0,6.0,80,0.00,,,0.00,0.000000,,2013-01-14 10:11:00,
2013-01-14 05:33:00,6.0,1.0,-100.00,SE,130,3.0,5.0,80,0.00,,,0.00,0.000000,,2013-01-14 10:33:00,
2013-01-14 05:43:00,6.0,1.0,-100.00,SE,130,3.0,5.0,80,0.00,,,0.00,0.000000,,2013-01-14 10:43:00,
2013-01-14 05:52:00,6.0,1.0,-100.00,SE,130,3.0,5.0,80,0.00,,,0.00,0.000000,,2013-01-14 10:52:00,
2013-01-14 06:02:00,6.0,1.0,-100.00,SE,130,3.0,5.0,80,0.00,,,0.00,0.000000,,2013-01-14 11:02:00,
2013-01-14 06:11:00,6.0,1.0,-100.00,SE,130,3.0,5.0,80,0.00,,,0.00,0.000000,,2013-01-14 11:11:00,
2013-01-14 06:12:00,6.0,1.0,-100.00,SSE,153,3.0,5.0,80,0.00,,,0.00,0.000000,,2013-01-14 11:12:00,
2013-01-14 06:43:00,6.0,1.0,-100.00,SSE,153,3.0,5.0,80,0.00,,,0.00,0.000000,,2013-01-14 11:43:00,
2013-01-14 06:53:00,6.0,1.0,-100.00,SSE,153,3.0,5.0,80,0.00,,,0.00,0.000000,,2013-01-14 11:53:00,
2013-01-14 07:02:00,6.0,1.0,-100.00,SSE,153,3.0,5.0,80,0.00,,,0.00,0.000000,,2013-01-14 12:02:00,
2013-01-14 07:12:00,6.0,1.0,-100.00,SE,134,3.0,4.0,80,0.00,,,0.00,0.000000,,2013-01-14 12:12:00,
2013-01-14 07:33:00,6.0,1.0,-100.00,SE,134,3.0,4.0,80,0.00,,,0.00,0.000000,,2013-01-14 12:33:00,
2013-01-14 07:43:00,6.0,1.0,-100.00,SE,134,3.0,4.0,80,0.00,,,0.00,0.000000,,2013-01-14 12:43:00,
2013-01-14 07:53:00,6.0,1.0,-100.00,SE,134,3.0,4.0,80,0.00,,,0.00,0.000000,,2013-01-14 12:53:00,
2013-01-14 08:03:00,6.0,1.0,-100.00,SE,134,3.0,4.0,80,0.00,,,0.00,0.000000,,2013-01-14 13:03:00,
2013-01-14 08:12:00,6.0,1.0,-100.00,SE,141,4.0,5.0,80,0.00,,,0.00,0.000000,,2013-01-14 13:12:00,
2013-01-14 08:33:00,6.0,1.0,-100.00,SE,141,4.0,5.0,80,0.00,,,0.00,0.000000,,2013-01-14 13:33:00,
2013-01-14 08:43:00,6.0,1.0,-100.00,SE,141,4.0,5.0,80,0.00,,,0.00,0.000000,,2013-01-14 13:43:00,
2013-01-14 08:53:00,6.0,1.0,-100.00,SE,141,4.0,5.0,80,0.00,,,0.00,0.000000,,2013-01-14 13:53:00,
2013-01-14 09:02:00,6.0,1.0,-100.00,SE,141,4.0,5.0,80,0.00,,,0.00,0.000000,,2013-01-14 14:02:00,
2013-01-14 09:12:00,6.0,1.0,-100.00,SE,142,6.0,9.0,80,0.00,,,0.00,0.000000,,2013-01-14 14:12:00,
2013-01-14 09:33:00,6.0,1.0,-100.00,SE,142,6.0,9.0,80,0.00,,,0.00,0.000000,,2013-01-14 14:33:00,
2013-01-14 09:43:00,6.0,1.0,-100.00,SE,142,6.0,9.0,80,0.00,,,0.00,0.000000,,2013-01-14 14:43:00,
2013-01-14 09:53:00,6.0,1.0,-100.00,SE,142,6.0,9.0,80,0.00,,,0.00,0.000000,,2013-01-14 14:53:00,
2013-01-14 10:03:00,6.0,1.0,-100.00,SE,142,6.0,9.0,80,0.00,,,0.00,0.000000,,2013-01-14 15:03:00,
2013-01-14 10:12:00,5.0,0.0,-100.00,SE,142,7.0,10.0,79,0.00,,,0.00,5.000000,,2013-01-14 15:12:00,
2013-01-14 10:34:00,5.0,0.0,-100.00,SE,142,7.0,10.0,79,0.00,,,0.00,5.000000,,2013-01-14 15:34:00,
2013-01-14 10:43:00,5.0,0.0,-100.00,SE,142,7.0,10.0,79,0.00,,,0.00,5.000000,,2013-01-14 15:43:00,
2013-01-14 10:53:00,5.0,0.0,-100.00,SE,142,7.0,10.0,79,0.00,,,0.00,5.000000,,2013-01-14 15:53:00,
2013-01-14 11:02:00,5.0,0.0,-100.00,SE,142,7.0,10.0,79,0.00,,,0.00,5.000000,,2013-01-14 16:02:00,
2013-01-14 11:12:00,7.0,2.0,-100.00,SSE,160,3.0,7.0,79,0.00,,,0.00,29.000000,,2013-01-14 16:12:00,
2013-01-14 11:33:00,7.0,2.0,-100.00,SSE,160,3.0,7.0,79,0.00,,,0.00,29.000000,,2013-01-14 16:33:00,
2013-01-14 11:43:00,7.0,2.0,-100.00,SSE,160,3.0,7.0,79,0.00,,,0.00,29.000000,,2013-01-14 16:43:00,
2013-01-14 11:53:00,7.0,2.0,-100.00,SSE,160,3.0,7.0,79,0.00,,,0.00,29.000000,,2013-01-14 16:53:00,
2013-01-14 12:03:00,7.0,2.0,-100.00,SSE,160,3.0,7.0,79,0.00,,,0.00,29.000000,,2013-01-14 17:03:00,
2013-01-14 12:12:00,10.0,5.0,-100.00,SSE,164,3.0,6.0,79,0.00,,,0.00,54.000000,,2013-01-14 17:12:00,
2013-01-14 12:33:00,10.0,5.0,-100.00,SSE,164,3.0,6.0,79,0.00,,,0.00,54.000000,,2013-01-14 17:33:00,
2013-01-14 12:43:00,10.0,5.0,-100.00,SSE,164,3.0,6.0,79,0.00,,,0.00,54.000000,,2013-01-14 17:43:00,
2013-01-14 12:53:00,10.0,5.0,-100.00,SSE,164,3.0,6.0,79,0.00,,,0.00,54.000000,,2013-01-14 17:53:00,
2013-01-14 13:02:00,10.0,5.0,-100.00,SSE,164,3.0,6.0,79,0.00,,,0.00,54.000000,,2013-01-14 18:02:00,
2013-01-14 13:12:00,15.0,9.0,-100.00,South,180,5.0,7.0,78,0.00,,,0.00,88.000000,,2013-01-14 18:12:00,
2013-01-14 13:33:00,15.0,9.0,-100.00,South,180,5.0,7.0,78,0.00,,,0.00,88.000000,,2013-01-14 18:33:00,
2013-01-14 13:43:00,15.0,9.0,-100.00,South,180,5.0,7.0,78,0.00,,,0.00,88.000000,,2013-01-14 18:43:00,
2013-01-14 13:53:00,15.0,9.0,-100.00,South,180,5.0,7.0,78,0.00,,,0.00,88.000000,,2013-01-14 18:53:00,
2013-01-14 14:02:00,15.0,9.0,-100.00,South,180,5.0,7.0,78,0.00,,,0.00,88.000000,,2013-01-14 19:02:00,
2013-01-14 14:12:00,16.0,9.0,-100.00,South,178,5.0,8.0,74,0.00,,,0.00,112.000000,,2013-01-14 19:12:00,
2013-01-14 14:43:00,16.0,9.0,-100.00,South,178,5.0,8.0,74,0.00,,,0.00,112.000000,,2013-01-14 19:43:00,
2013-01-14 14:53:00,16.0,9.0,-100.00,South,178,5.0,8.0,74,0.00,,,0.00,112.000000,,2013-01-14 19:53:00,
2013-01-14 15:03:00,16.0,9.0,-100.00,South,178,5.0,8.0,74,0.00,,,0.00,112.000000,,2013-01-14 20:03:00,
2013-01-14 15:12:00,16.0,8.0,-100.00,South,183,5.0,11.0,69,0.00,,,0.00,127.000000,,2013-01-14 20:12:00,
2013-01-14 15:33:00,16.0,8.0,-100.00,South,183,5.0,11.0,69,0.00,,,0.00,127.000000,,2013-01-14 20:33:00,
2013-01-14 15:43:00,16.0,8.0,-100.00,South,183,5.0,11.0,69,0.00,,,0.00,127.000000,,2013-01-14 20:43:00,
2013-01-14 15:53:00,16.0,8.0,-100.00,South,183,5.0,11.0,69,0.00,,,0.00,127.000000,,2013-01-14 20:53:00,
2013-01-14 16:02:00,16.0,8.0,-100.00,South,183,5.0,11.0,69,0.00,,,0.00,127.000000,,2013-01-14 21:02:00,
2013-01-14 16:33:00,18.0,6.0,-100.00,SW,225,6.0,13.0,60,0.00,,,0.00,129.000000,,2013-01-14 21:33:00,
2013-01-14 16:43:00,18.0,6.0,-100.00,SW,225,6.0,13.0,60,0.00,,,0.00,129.000000,,2013-01-14 21:43:00,
2013-01-14 16:53:00,18.0,6.0,-100.00,SW,225,6.0,13.0,60,0.00,,,0.00,129.000000,,2013-01-14 21:53:00,
2013-01-14 17:02:00,18.0,6.0,-100.00,SW,225,6.0,13.0,60,0.00,,,0.00,129.000000,,2013-01-14 22:02:00,
2013-01-14 17:11:00,18.0,6.0,-100.00,SW,225,6.0,13.0,60,0.00,,,0.00,129.000000,,2013-01-14 22:11:00,
2013-01-14 17:12:00,14.0,3.0,-100.00,SSW,201,7.0,11.0,61,0.00,,,-99.99,71.000000,,2013-01-14 22:12:00,
2013-01-14 17:33:00,14.0,3.0,-100.00,SSW,201,7.0,11.0,61,0.00,,,-99.99,71.000000,,2013-01-14 22:33:00,
2013-01-14 17:43:00,14.0,3.0,-100.00,SSW,201,7.0,11.0,61,0.00,,,-99.99,71.000000,,2013-01-14 22:43:00,
2013-01-14 17:52:00,14.0,3.0,-100.00,SSW,201,7.0,11.0,61,0.00,,,-99.99,71.000000,,2013-01-14 22:52:00,
2013-01-14 18:02:00,14.0,3.0,-100.00,SSW,201,7.0,11.0,61,0.00,,,-99.99,71.000000,,2013-01-14 23:02:00,
2013-01-14 18:12:00,9.0,0.0,-100.00,SW,223,6.0,12.0,67,0.00,,,0.00,32.000000,,2013-01-14 23:12:00,
2013-01-14 18:33:00,9.0,0.0,-100.00,SW,223,6.0,12.0,67,0.00,,,0.00,32.000000,,2013-01-14 23:33:00,
2013-01-14 18:43:00,9.0,0.0,-100.00,SW,223,6.0,12.0,67,0.00,,,0.00,32.000000,,2013-01-14 23:43:00,
2013-01-14 18:53:00,9.0,0.0,-100.00,SW,223,6.0,12.0,67,0.00,,,0.00,32.000000,,2013-01-14 23:53:00,
2013-01-14 19:02:00,9.0,0.0,-100.00,SW,223,6.0,12.0,67,0.00,,,0.00,32.000000,,2013-01-15 00:02:00,
2013-01-14 19:12:00,7.0,2.0,-100.00,NW,311,2.0,9.0,80,0.00,,,-99.99,7.000000,,2013-01-15 00:12:00,
2013-01-14 19:33:00,7.0,2.0,-100.00,NW,311,2.0,9.0,80,0.00,,,-99.99,7.000000,,2013-01-15 00:33:00,
2013-01-14 19:43:00,7.0,2.0,-100.00,NW,311,2.0,9.0,80,0.00,,,-99.99,7.000000,,2013-01-15 00:43:00,
2013-01-14 19:53:00,7.0,2.0,-100.00,NW,311,2.0,9.0,80,0.00,,,-99.99,7.000000,,2013-01-15 00:53:00,
2013-01-14 20:02:00,7.0,2.0,-100.00,NW,311,2.0,9.0,80,0.00,,,-99.99,7.000000,,2013-01-15 01:02:00,
2013-01-14 21:33:00,5.0,0.0,-100.00,WSW,255,6.0,9.0,80,-99.99,,,0.00,0.000000,,2013-01-15 02:33:00,
2013-01-14 21:42:00,5.0,0.0,-100.00,WSW,255,6.0,9.0,80,-99.99,,,0.00,0.000000,,2013-01-15 02:42:00,
2013-01-14 21:53:00,5.0,0.0,-100.00,WSW,255,6.0,9.0,80,-99.99,,,0.00,0.000000,,2013-01-15 02:53:00,
2013-01-14 22:02:00,5.0,0.0,-100.00,WSW,255,6.0,9.0,80,-99.99,,,0.00,0.000000,,2013-01-15 03:02:00,
2013-01-14 22:11:00,5.0,0.0,-100.00,WSW,255,6.0,9.0,80,-99.99,,,0.00,0.000000,,2013-01-15 03:11:00,
2013-01-14 22:12:00,3.0,-3.0,-100.00,WSW,245,2.0,7.0,77,0.00,,,0.00,0.000000,,2013-01-15 03:12:00,
2013-01-14 22:33:00,3.0,-3.0,-100.00,WSW,245,2.0,7.0,77,0.00,,,0.00,0.000000,,2013-01-15 03:33:00,
2013-01-14 22:42:00,3.0,-3.0,-100.00,WSW,245,2.0,7.0,77,0.00,,,0.00,0.000000,,2013-01-15 03:42:00,
2013-01-14 22:52:00,3.0,-3.0,-100.00,WSW,245,2.0,7.0,77,0.00,,,0.00,0.000000,,2013-01-15 03:52:00,
2013-01-14 23:02:00,3.0,-3.0,-100.00,WSW,245,2.0,7.0,77,0.00,,,0.00,0.000000,,2013-01-15 04:02:00,
2013-01-14 23:12:00,3.0,-2.0,-100.00,West,280,1.0,6.0,80,0.00,,,0.00,0.000000,,2013-01-15 04:12:00,
2013-01-14 23:33:00,3.0,-2.0,-100.00,West,280,1.0,6.0,80,0.00,,,0.00,0.000000,,2013-01-15 04:33:00,
2013-01-14 23:42:00,3.0,-2.0,-100.00,West,280,1.0,6.0,80,0.00,,,0.00,0.000000,,2013-01-15 04:42:00,
2013-01-14 23:52:00,3.0,-2.0,-100.00,West,280,1.0,6.0,80,0.00,,,0.00,0.000000,,2013-01-15 04:52:00,